Willimantic, CT

3:31 AM EDT on May 30, 2017 (GMT -0400)
Windham

Weather History for KIJD - March, 2012

Change the Weather History Date:

Monday, March 12, 2012

  Actual Average Record
Temperature  
Mean Temperature 50 °F -  
Max Temperature 72 °F 47 °F 74 °F (1977)
Min Temperature 28 °F 24 °F -1 °F (1960)
Degree Days  
Heating Degree Days 15    
Moisture  
Dew Point 29 °F    
Average Humidity 53    
Maximum Humidity 92    
Minimum Humidity 16    
Precipitation  
Precipitation 0.00 in - - ()
Sea Level Pressure  
Sea Level Pressure 30.23 in    
Wind  
Wind Speed 2 mph (South)    
Max Wind Speed 10 mph    
Max Gust Speed -    
Visibility 10 miles    
Events      
Averages and records for this station are not official NWS values.
T = Trace of Precipitation, MM = Missing Value Source: NWS Daily Summary

Daily Weather History Graph

Daily Weather History Graph

Search for Another Location

Airport or City:

Trip Planner

Search our weather history database for the weather conditions in past years. The results will help you decide how hot, cold, wet, or windy it might be!

Date:

Astronomy

Mar. 12, 2012 Rise Set
Actual Time 7:04 AM EDT 6:52 PM EDT
Civil Twilight 6:37 AM EDT 7:20 PM EDT
Nautical Twilight 6:04 AM EDT 7:52 PM EDT
Astronomical Twilight 5:32 AM EDT 8:25 PM EDT
Moon No Moon Rise 9:18 AM EDT (3/12)
Length of Visible Light 12h 43m
Length of Day
11h 47m
Waning Gibbous, 76% of the Moon is Illuminated
Mar 12
Waning Gibbous
Mar 14
Last Quarter
Mar 22
New
Mar 30
First Quarter
Apr 6
Full

Hourly Weather History & Observations

Time (EDT) Temp. Windchill Dew Point Humidity Pressure Visibility Wind Dir Wind Speed Gust Speed Precip Events Conditions
12:52 AM 32.0 °F - 27.0 °F 82% 30.32 in 10.0 mi Calm Calm - N/A   Clear
1:52 AM 30.9 °F - 27.0 °F 85% 30.31 in 10.0 mi Calm Calm - N/A   Clear
2:52 AM 30.9 °F 27.5 °F 28.0 °F 89% 30.30 in 10.0 mi NE 3.5 mph - N/A   Clear
3:52 AM 32.0 °F - 28.9 °F 88% 30.29 in 10.0 mi Calm Calm - N/A   Clear
4:52 AM 30.0 °F - 27.0 °F 88% 30.28 in 10.0 mi Calm Calm - N/A   Clear
5:52 AM 28.0 °F - 26.1 °F 92% 30.28 in 7.0 mi Calm Calm - N/A   Clear
6:52 AM 28.0 °F - 25.0 °F 88% 30.30 in 9.0 mi Calm Calm - N/A   Clear
7:52 AM 30.0 °F - 26.1 °F 85% 30.30 in 9.0 mi Calm Calm - N/A   Clear
8:52 AM 36.0 °F - 30.9 °F 82% 30.31 in 10.0 mi Calm Calm - N/A   Clear
9:52 AM 44.1 °F - 32.0 °F 63% 30.30 in 10.0 mi Calm Calm - N/A   Clear
10:52 AM 55.9 °F - 32.0 °F 40% 30.28 in 10.0 mi Calm Calm - N/A   Clear
11:52 AM 62.1 °F - 30.0 °F 30% 30.26 in 10.0 mi SSW 4.6 mph - N/A   Clear
12:52 PM 70.0 °F - 27.0 °F 20% 30.23 in 10.0 mi Variable 4.6 mph - N/A   Clear
1:52 PM 70.0 °F - 25.0 °F 18% 30.21 in 10.0 mi SW 8.1 mph - N/A   Clear
2:52 PM 72.0 °F - 23.0 °F 16% 30.18 in 10.0 mi WSW 8.1 mph - N/A   Clear
3:52 PM 71.1 °F - 24.1 °F 17% 30.17 in 10.0 mi WNW 10.4 mph - N/A   Clear
4:52 PM 71.1 °F - 27.0 °F 19% 30.15 in 10.0 mi SSW 10.4 mph - N/A   Clear
5:52 PM 68.0 °F - 27.0 °F 21% 30.15 in 10.0 mi South 9.2 mph - N/A   Clear
6:52 PM 64.0 °F - 28.9 °F 27% 30.15 in 10.0 mi South 5.8 mph - N/A   Clear
7:52 PM 61.0 °F - 34.0 °F 36% 30.16 in 10.0 mi South 6.9 mph - N/A   Clear
8:52 PM 57.9 °F - 35.1 °F 42% 30.16 in 10.0 mi SSE 4.6 mph - N/A   Clear
9:52 PM 55.9 °F - 34.0 °F 44% 30.16 in 10.0 mi SSE 3.5 mph - N/A   Scattered Clouds
10:52 PM 54.0 °F - 35.1 °F 49% 30.15 in 10.0 mi Calm Calm - N/A   Clear
11:52 PM 54.0 °F - 36.0 °F 51% 30.14 in 10.0 mi SSE 4.6 mph - N/A   Partly Cloudy